![]() |
EMODnet Physics ERDDAP
Easier access to scientific data |
log in|
Brought to you by EMODnet Physics |
| Dataset Title: | NDBC - Collection of dew point temperature (DEWT) TimeSeries - IN SITU MultiPointTimeSeriesObservation
|
| Institution: | NDBC (Dataset ID: TS_DEWT_NDBC) |
| Information: | Summary
| License
| FGDC
| ISO 19115
| Metadata
| Background
| Subset
| Data Access Form
| Make a graph
|
| Name | Last modified | Size | Description | |
|---|---|---|---|---|
| Parent Directory | - | - | ||
| NTKM3_TS_DEWT_012006.nc | 27-Oct-2024 16:12 | 429570 | ||
| NTKM3_TS_DEWT_012007.nc | 27-Oct-2024 16:12 | 429572 | ||
| NTKM3_TS_DEWT_012008.nc | 27-Oct-2024 16:12 | 450716 | ||
| NTKM3_TS_DEWT_012009.nc | 27-Oct-2024 16:12 | 429575 | ||
| NTKM3_TS_DEWT_012010.nc | 27-Oct-2024 16:12 | 450068 | ||
| NTKM3_TS_DEWT_012011.nc | 27-Oct-2024 16:12 | 429555 | ||
| NTKM3_TS_DEWT_012012.nc | 27-Oct-2024 16:12 | 450694 | ||
| NTKM3_TS_DEWT_012013.nc | 27-Oct-2024 16:12 | 449460 | ||
| NTKM3_TS_DEWT_012014.nc | 27-Oct-2024 16:12 | 420266 | ||
| NTKM3_TS_DEWT_012015.nc | 27-Oct-2024 16:12 | 1114804 | ||
| NTKM3_TS_DEWT_012016.nc | 27-Oct-2024 16:12 | 994851 | ||
| NTKM3_TS_DEWT_012017.nc | 27-Oct-2024 16:12 | 418875 | ||
| NTKM3_TS_DEWT_012018.nc | 27-Oct-2024 16:12 | 429917 | ||
| NTKM3_TS_DEWT_012019.nc | 27-Oct-2024 16:12 | 440388 | ||
| NTKM3_TS_DEWT_012020.nc | 27-Oct-2024 16:12 | 429890 | ||
| NTKM3_TS_DEWT_012021.nc | 27-Oct-2024 16:12 | 607429 | ||
| NTKM3_TS_DEWT_012022.nc | 27-Oct-2024 16:12 | 587289 | ||
| NTKM3_TS_DEWT_012023.nc | 27-Oct-2024 16:12 | 450658 | ||
| NTKM3_TS_DEWT_012024.nc | 27-Oct-2024 16:12 | 451762 | ||
| NTKM3_TS_DEWT_022006.nc | 27-Oct-2024 16:13 | 429916 | ||
| NTKM3_TS_DEWT_022007.nc | 27-Oct-2024 16:13 | 429919 | ||
| NTKM3_TS_DEWT_022009.nc | 27-Oct-2024 16:13 | 449481 | ||
| NTKM3_TS_DEWT_022010.nc | 27-Oct-2024 16:13 | 429914 | ||
| NTKM3_TS_DEWT_022011.nc | 27-Oct-2024 16:13 | 451717 | ||
| NTKM3_TS_DEWT_022012.nc | 27-Oct-2024 16:13 | 429911 | ||
| NTKM3_TS_DEWT_022013.nc | 27-Oct-2024 16:13 | 450949 | ||
| NTKM3_TS_DEWT_022014.nc | 27-Oct-2024 16:13 | 452188 | ||
| NTKM3_TS_DEWT_022015.nc | 27-Oct-2024 16:13 | 418959 | ||
| NTKM3_TS_DEWT_022016.nc | 27-Oct-2024 16:13 | 1267703 | ||
| NTKM3_TS_DEWT_022017.nc | 27-Oct-2024 16:13 | 1143264 | ||
| NTKM3_TS_DEWT_022018.nc | 27-Oct-2024 16:13 | 451305 | ||
| NTKM3_TS_DEWT_022019.nc | 27-Oct-2024 16:13 | 431164 | ||
| NTKM3_TS_DEWT_022020.nc | 27-Oct-2024 16:13 | 442372 | ||
| NTKM3_TS_DEWT_022021.nc | 27-Oct-2024 16:13 | 450302 | ||
| NTKM3_TS_DEWT_022022.nc | 27-Oct-2024 16:14 | 451102 | ||
| NTKM3_TS_DEWT_022023.nc | 27-Oct-2024 16:14 | 448895 | ||
| NTKM3_TS_DEWT_022024.nc | 16-Sep-2024 16:51 | 450737 | ||
| NTKM3_TS_DEWT_032006.nc | 27-Oct-2024 16:14 | 450639 | ||
| NTKM3_TS_DEWT_032009.nc | 27-Oct-2024 16:14 | 450961 | ||
| NTKM3_TS_DEWT_032010.nc | 27-Oct-2024 16:14 | 450842 | ||
| NTKM3_TS_DEWT_032011.nc | 27-Oct-2024 16:14 | 1266108 | ||
| NTKM3_TS_DEWT_032012.nc | 27-Oct-2024 16:14 | 433627 | ||
| NTKM3_TS_DEWT_032013.nc | 27-Oct-2024 16:14 | 448290 | ||
| NTKM3_TS_DEWT_032014.nc | 27-Oct-2024 16:14 | 447602 | ||
| NTKM3_TS_DEWT_032015.nc | 27-Oct-2024 16:14 | 446568 | ||
| NTKM3_TS_DEWT_032016.nc | 27-Oct-2024 16:14 | 448501 | ||
| NTKM3_TS_DEWT_032017.nc | 27-Oct-2024 16:14 | 447509 | ||
| NTKM3_TS_DEWT_032018.nc | 27-Oct-2024 16:14 | 449193 | ||
| NTKM3_TS_DEWT_032019.nc | 27-Oct-2024 16:14 | 447017 | ||
| NTKM3_TS_DEWT_032020.nc | 27-Oct-2024 16:14 | 1028387 | ||
| NTKM3_TS_DEWT_032021.nc | 27-Oct-2024 16:15 | 441287 | ||
| NTKM3_TS_DEWT_032022.nc | 27-Oct-2024 16:15 | 451211 | ||
| NTKM3_TS_DEWT_032023.nc | 27-Oct-2024 16:15 | 450286 | ||
| NTKM3_TS_DEWT_042006.nc | 27-Oct-2024 16:15 | 448819 | ||
| NTKM3_TS_DEWT_042009.nc | 27-Oct-2024 16:15 | 450945 | ||
| NTKM3_TS_DEWT_042010.nc | 27-Oct-2024 16:15 | 451703 | ||
| NTKM3_TS_DEWT_042011.nc | 27-Oct-2024 16:15 | 451096 | ||
| NTKM3_TS_DEWT_042012.nc | 27-Oct-2024 16:15 | 451396 | ||
| NTKM3_TS_DEWT_042013.nc | 27-Oct-2024 16:15 | 1254900 | ||
| NTKM3_TS_DEWT_042014.nc | 27-Oct-2024 16:15 | 449035 | ||
| NTKM3_TS_DEWT_042015.nc | 27-Oct-2024 16:15 | 424229 | ||
| NTKM3_TS_DEWT_042016.nc | 27-Oct-2024 16:15 | 449623 | ||
| NTKM3_TS_DEWT_042017.nc | 27-Oct-2024 16:15 | 449736 | ||
| NTKM3_TS_DEWT_042018.nc | 27-Oct-2024 16:15 | 447646 | ||
| NTKM3_TS_DEWT_042019.nc | 27-Oct-2024 16:15 | 448944 | ||
| NTKM3_TS_DEWT_042020.nc | 27-Oct-2024 16:15 | 449754 | ||
| NTKM3_TS_DEWT_042021.nc | 27-Oct-2024 16:16 | 448981 | ||
| NTKM3_TS_DEWT_042022.nc | 27-Oct-2024 16:16 | 449874 | ||
| NTKM3_TS_DEWT_042023.nc | 27-Oct-2024 16:16 | 1116160 | ||
| NTKM3_TS_DEWT_052006.nc | 27-Oct-2024 16:16 | 450045 | ||
| NTKM3_TS_DEWT_052009.nc | 27-Oct-2024 16:16 | 429290 | ||
| NTKM3_TS_DEWT_052010.nc | 27-Oct-2024 16:16 | 449767 | ||
| NTKM3_TS_DEWT_052011.nc | 27-Oct-2024 16:16 | 443208 | ||
| NTKM3_TS_DEWT_052012.nc | 27-Oct-2024 16:16 | 450988 | ||
| NTKM3_TS_DEWT_052013.nc | 27-Oct-2024 16:16 | 450201 | ||
| NTKM3_TS_DEWT_052014.nc | 27-Oct-2024 16:16 | 449837 | ||
| NTKM3_TS_DEWT_052015.nc | 27-Oct-2024 16:16 | 622483 | ||
| NTKM3_TS_DEWT_052016.nc | 27-Oct-2024 16:16 | 1264370 | ||
| NTKM3_TS_DEWT_052017.nc | 27-Oct-2024 16:17 | 433464 | ||
| NTKM3_TS_DEWT_052018.nc | 27-Oct-2024 16:17 | 448829 | ||
| NTKM3_TS_DEWT_052019.nc | 27-Oct-2024 16:17 | 429952 | ||
| NTKM3_TS_DEWT_052020.nc | 27-Oct-2024 16:17 | 448747 | ||
| NTKM3_TS_DEWT_052021.nc | 27-Oct-2024 16:17 | 443406 | ||
| NTKM3_TS_DEWT_052022.nc | 27-Oct-2024 16:17 | 449189 | ||
| NTKM3_TS_DEWT_052023.nc | 27-Oct-2024 16:17 | 448903 | ||
| NTKM3_TS_DEWT_062009.nc | 27-Oct-2024 16:17 | 449589 | ||
| NTKM3_TS_DEWT_062010.nc | 27-Oct-2024 16:17 | 438984 | ||
| NTKM3_TS_DEWT_062011.nc | 27-Oct-2024 16:17 | 1108388 | ||
| NTKM3_TS_DEWT_062012.nc | 27-Oct-2024 16:17 | 1070177 | ||
| NTKM3_TS_DEWT_062013.nc | 27-Oct-2024 16:17 | 449149 | ||
| NTKM3_TS_DEWT_062014.nc | 27-Oct-2024 16:17 | 451169 | ||
| NTKM3_TS_DEWT_062015.nc | 27-Oct-2024 16:17 | 450258 | ||
| NTKM3_TS_DEWT_062016.nc | 27-Oct-2024 16:17 | 450117 | ||
| NTKM3_TS_DEWT_062017.nc | 27-Oct-2024 16:18 | 440215 | ||
| NTKM3_TS_DEWT_062018.nc | 27-Oct-2024 16:18 | 449545 | ||
| NTKM3_TS_DEWT_062019.nc | 27-Oct-2024 16:18 | 430712 | ||
| NTKM3_TS_DEWT_062020.nc | 27-Oct-2024 16:18 | 435732 | ||
| NTKM3_TS_DEWT_062021.nc | 27-Oct-2024 16:18 | 450023 | ||
| NTKM3_TS_DEWT_062022.nc | 27-Oct-2024 16:18 | 449188 | ||
| NTKM3_TS_DEWT_062023.nc | 27-Oct-2024 16:18 | 433588 | ||
| NTKM3_TS_DEWT_072005.nc | 27-Oct-2024 16:18 | 448320 | ||
| NTKM3_TS_DEWT_072009.nc | 27-Oct-2024 16:18 | 449986 | ||
| NTKM3_TS_DEWT_072010.nc | 27-Oct-2024 16:18 | 1260486 | ||
| NTKM3_TS_DEWT_072011.nc | 27-Oct-2024 16:18 | 1222784 | ||
| NTKM3_TS_DEWT_072012.nc | 27-Oct-2024 16:18 | 450270 | ||
| NTKM3_TS_DEWT_072013.nc | 27-Oct-2024 16:18 | 451529 | ||
| NTKM3_TS_DEWT_072014.nc | 27-Oct-2024 16:18 | 450980 | ||
| NTKM3_TS_DEWT_072015.nc | 27-Oct-2024 16:18 | 449200 | ||
| NTKM3_TS_DEWT_072016.nc | 27-Oct-2024 16:19 | 449416 | ||
| NTKM3_TS_DEWT_072017.nc | 27-Oct-2024 16:19 | 431351 | ||
| NTKM3_TS_DEWT_072018.nc | 27-Oct-2024 16:19 | 449424 | ||
| NTKM3_TS_DEWT_072019.nc | 27-Oct-2024 16:19 | 421304 | ||
| NTKM3_TS_DEWT_072020.nc | 27-Oct-2024 16:19 | 448283 | ||
| NTKM3_TS_DEWT_072021.nc | 27-Oct-2024 16:19 | 451448 | ||
| NTKM3_TS_DEWT_072022.nc | 27-Oct-2024 16:19 | 450581 | ||
| NTKM3_TS_DEWT_072023.nc | 27-Oct-2024 16:19 | 450168 | ||
| NTKM3_TS_DEWT_082005.nc | 27-Oct-2024 16:19 | 449443 | ||
| NTKM3_TS_DEWT_082006.nc | 27-Oct-2024 16:19 | 450165 | ||
| NTKM3_TS_DEWT_082009.nc | 27-Oct-2024 16:19 | 449546 | ||
| NTKM3_TS_DEWT_082010.nc | 27-Oct-2024 16:19 | 1264547 | ||
| NTKM3_TS_DEWT_082011.nc | 27-Oct-2024 16:19 | 1218983 | ||
| NTKM3_TS_DEWT_082012.nc | 27-Oct-2024 16:19 | 448767 | ||
| NTKM3_TS_DEWT_082013.nc | 27-Oct-2024 16:19 | 448340 | ||
| NTKM3_TS_DEWT_082014.nc | 27-Oct-2024 16:20 | 448952 | ||
| NTKM3_TS_DEWT_082015.nc | 27-Oct-2024 16:20 | 449739 | ||
| NTKM3_TS_DEWT_082016.nc | 27-Oct-2024 16:20 | 449174 | ||
| NTKM3_TS_DEWT_082017.nc | 27-Oct-2024 16:20 | 448402 | ||
| NTKM3_TS_DEWT_082018.nc | 27-Oct-2024 16:20 | 448761 | ||
| NTKM3_TS_DEWT_082019.nc | 27-Oct-2024 16:20 | 450588 | ||
| NTKM3_TS_DEWT_082020.nc | 27-Oct-2024 16:20 | 447760 | ||
| NTKM3_TS_DEWT_082021.nc | 27-Oct-2024 16:20 | 450389 | ||
| NTKM3_TS_DEWT_082022.nc | 27-Oct-2024 16:20 | 449548 | ||
| NTKM3_TS_DEWT_082023.nc | 27-Oct-2024 16:20 | 448344 | ||
| NTKM3_TS_DEWT_092005.nc | 27-Oct-2024 16:20 | 448656 | ||
| NTKM3_TS_DEWT_092006.nc | 27-Oct-2024 16:20 | 447978 | ||
| NTKM3_TS_DEWT_092007.nc | 27-Oct-2024 16:20 | 449677 | ||
| NTKM3_TS_DEWT_092008.nc | 27-Oct-2024 16:20 | 1114489 | ||
| NTKM3_TS_DEWT_092009.nc | 27-Oct-2024 16:20 | 1110555 | ||
| NTKM3_TS_DEWT_092010.nc | 27-Oct-2024 16:20 | 451427 | ||
| NTKM3_TS_DEWT_092011.nc | 27-Oct-2024 16:20 | 450876 | ||
| NTKM3_TS_DEWT_092012.nc | 27-Oct-2024 16:20 | 451242 | ||
| NTKM3_TS_DEWT_092013.nc | 27-Oct-2024 16:21 | 449555 | ||
| NTKM3_TS_DEWT_092014.nc | 27-Oct-2024 16:21 | 450824 | ||
| NTKM3_TS_DEWT_092015.nc | 27-Oct-2024 16:21 | 449538 | ||
| NTKM3_TS_DEWT_092016.nc | 27-Oct-2024 16:21 | 446654 | ||
| NTKM3_TS_DEWT_092017.nc | 27-Oct-2024 16:21 | 450868 | ||
| NTKM3_TS_DEWT_092018.nc | 27-Oct-2024 16:21 | 449080 | ||
| NTKM3_TS_DEWT_092019.nc | 27-Oct-2024 16:21 | 450878 | ||
| NTKM3_TS_DEWT_092020.nc | 27-Oct-2024 16:21 | 451353 | ||
| NTKM3_TS_DEWT_092021.nc | 27-Oct-2024 16:21 | 446148 | ||
| NTKM3_TS_DEWT_092022.nc | 27-Oct-2024 16:21 | 451103 | ||
| NTKM3_TS_DEWT_092023.nc | 27-Oct-2024 16:21 | 449895 | ||
| NTKM3_TS_DEWT_102005.nc | 27-Oct-2024 16:21 | 450643 | ||
| NTKM3_TS_DEWT_102006.nc | 27-Oct-2024 16:21 | 1266874 | ||
| NTKM3_TS_DEWT_102007.nc | 27-Oct-2024 16:22 | 1259023 | ||
| NTKM3_TS_DEWT_102008.nc | 27-Oct-2024 16:22 | 450747 | ||
| NTKM3_TS_DEWT_102009.nc | 27-Oct-2024 16:22 | 448963 | ||
| NTKM3_TS_DEWT_102010.nc | 27-Oct-2024 16:22 | 445033 | ||
| NTKM3_TS_DEWT_102011.nc | 27-Oct-2024 16:22 | 450008 | ||
| NTKM3_TS_DEWT_102012.nc | 27-Oct-2024 16:22 | 449675 | ||
| NTKM3_TS_DEWT_102014.nc | 27-Oct-2024 16:22 | 450321 | ||
| NTKM3_TS_DEWT_102015.nc | 27-Oct-2024 16:22 | 447437 | ||
| NTKM3_TS_DEWT_102016.nc | 27-Oct-2024 16:22 | 450970 | ||
| NTKM3_TS_DEWT_102017.nc | 27-Oct-2024 16:22 | 450058 | ||
| NTKM3_TS_DEWT_102018.nc | 27-Oct-2024 16:22 | 449784 | ||
| NTKM3_TS_DEWT_102019.nc | 27-Oct-2024 16:22 | 449150 | ||
| NTKM3_TS_DEWT_102020.nc | 27-Oct-2024 16:23 | 449628 | ||
| NTKM3_TS_DEWT_102021.nc | 27-Oct-2024 16:23 | 449670 | ||
| NTKM3_TS_DEWT_102022.nc | 27-Oct-2024 16:23 | 1113175 | ||
| NTKM3_TS_DEWT_102023.nc | 27-Oct-2024 16:23 | 1108588 | ||
| NTKM3_TS_DEWT_112005.nc | 27-Oct-2024 16:23 | 451234 | ||
| NTKM3_TS_DEWT_112006.nc | 27-Oct-2024 16:23 | 451919 | ||
| NTKM3_TS_DEWT_112007.nc | 27-Oct-2024 16:23 | 426545 | ||
| NTKM3_TS_DEWT_112009.nc | 27-Oct-2024 16:23 | 450868 | ||
| NTKM3_TS_DEWT_112010.nc | 27-Oct-2024 16:23 | 451551 | ||
| NTKM3_TS_DEWT_112011.nc | 27-Oct-2024 16:23 | 448475 | ||
| NTKM3_TS_DEWT_112012.nc | 27-Oct-2024 16:23 | 451576 | ||
| NTKM3_TS_DEWT_112013.nc | 27-Oct-2024 16:23 | 451500 | ||
| NTKM3_TS_DEWT_112014.nc | 27-Oct-2024 16:23 | 435672 | ||
| NTKM3_TS_DEWT_112015.nc | 27-Oct-2024 16:23 | 451171 | ||
| NTKM3_TS_DEWT_112016.nc | 27-Oct-2024 16:24 | 444666 | ||
| NTKM3_TS_DEWT_112017.nc | 27-Oct-2024 16:24 | 451045 | ||
| NTKM3_TS_DEWT_112018.nc | 27-Oct-2024 16:24 | 1267985 | ||
| NTKM3_TS_DEWT_112019.nc | 27-Oct-2024 16:24 | 1345078 | ||
| NTKM3_TS_DEWT_112020.nc | 27-Oct-2024 16:24 | 450886 | ||
| NTKM3_TS_DEWT_112021.nc | 27-Oct-2024 16:24 | 451631 | ||
| NTKM3_TS_DEWT_112022.nc | 27-Oct-2024 16:24 | 451292 | ||
| NTKM3_TS_DEWT_112023.nc | 27-Oct-2024 16:24 | 449680 | ||
| NTKM3_TS_DEWT_122005.nc | 27-Oct-2024 16:24 | 451144 | ||
| NTKM3_TS_DEWT_122006.nc | 27-Oct-2024 16:24 | 451300 | ||
| NTKM3_TS_DEWT_122008.nc | 27-Oct-2024 16:24 | 429825 | ||
| NTKM3_TS_DEWT_122009.nc | 27-Oct-2024 16:24 | 450796 | ||
| NTKM3_TS_DEWT_122010.nc | 27-Oct-2024 16:24 | 450683 | ||
| NTKM3_TS_DEWT_122011.nc | 27-Oct-2024 16:24 | 451522 | ||
| NTKM3_TS_DEWT_122012.nc | 27-Oct-2024 16:25 | 452072 | ||
| NTKM3_TS_DEWT_122013.nc | 27-Oct-2024 16:25 | 429833 | ||
| NTKM3_TS_DEWT_122014.nc | 27-Oct-2024 16:25 | 429833 | ||
| NTKM3_TS_DEWT_122015.nc | 27-Oct-2024 16:25 | 429835 | ||
| NTKM3_TS_DEWT_122016.nc | 27-Oct-2024 16:25 | 3242347 | ||
| NTKM3_TS_DEWT_122017.nc | 27-Oct-2024 16:25 | 447371 | ||
| NTKM3_TS_DEWT_122018.nc | 27-Oct-2024 16:25 | 448270 | ||
| NTKM3_TS_DEWT_122019.nc | 27-Oct-2024 16:25 | 448680 | ||
| NTKM3_TS_DEWT_122020.nc | 27-Oct-2024 16:25 | 436740 | ||
| NTKM3_TS_DEWT_122021.nc | 27-Oct-2024 16:25 | 448057 | ||
| NTKM3_TS_DEWT_122022.nc | 27-Oct-2024 16:25 | 448689 | ||
| NTKM3_TS_DEWT_122023.nc | 27-Oct-2024 16:26 | 447787 | ||